Fort Indiantown Gap, PA

12:59 PM EDT on April 30, 2017 (GMT -0400)
Muir Army Air Field

Weather History for KMUI - December, 2012

Change the Weather History Date:

Wednesday, December 5, 2012

  Actual Average Record
Temperature  
Mean Temperature 46 °F -  
Max Temperature 57 °F 43 °F 69 °F (2001)
Min Temperature 34 °F 31 °F 21 °F (2006)
Degree Days  
Heating Degree Days 20    
Moisture  
Dew Point 37 °F    
Average Humidity 66    
Maximum Humidity 100    
Minimum Humidity 44    
Precipitation  
Precipitation 0.01 in - - ()
Sea Level Pressure  
Sea Level Pressure 30.10 in    
Wind  
Wind Speed 8 mph (NW)    
Max Wind Speed 17 mph    
Max Gust Speed 29 mph    
Visibility 9 miles    
Events Rain    
Averages and records for this station are not official NWS values.
T = Trace of Precipitation, MM = Missing Value Source: NWS Daily Summary

Daily Weather History Graph

Daily Weather History Graph

Search for Another Location

Airport or City:

Trip Planner

Search our weather history database for the weather conditions in past years. The results will help you decide how hot, cold, wet, or windy it might be!

Date:

Astronomy

Dec. 05, 2012 Rise Set
Actual Time 7:14 AM EST 4:39 PM EST
Civil Twilight 6:44 AM EST 5:10 PM EST
Nautical Twilight 6:10 AM EST 5:44 PM EST
Astronomical Twilight 5:37 AM EST 6:17 PM EST
Moon 11:27 PM EST (12/5) 11:36 AM EST (12/5)
Length of Visible Light 10h 26m
Length of Day
9h 25m
Waning Gibbous, 60% of the Moon is Illuminated
Dec 5
Waning Gibbous
Dec 6
Last Quarter
Dec 13
New
Dec 20
First Quarter
Dec 28
Full

Hourly Weather History & Observations

Time (EST) Temp. Windchill Dew Point Humidity Pressure Visibility Wind Dir Wind Speed Gust Speed Precip Events Conditions
12:11 AM 53.6 °F - 53.6 °F 100% 29.96 in 7.0 mi Calm Calm - N/A   Light Drizzle
12:21 AM 53.6 °F - 53.6 °F 100% 29.96 in 7.0 mi Calm Calm - N/A   Overcast
12:24 AM 53.6 °F - 53.6 °F 100% 29.96 in 7.0 mi Calm Calm - N/A Rain Light Rain
12:41 AM 53.6 °F - 53.6 °F 100% 29.95 in 6.0 mi Calm Calm - N/A   Overcast
12:55 AM 52.7 °F - 52.7 °F 100% 29.95 in 5.0 mi Calm Calm - 0.01 in   Overcast
1:51 AM 57.2 °F - 51.8 °F 82% 29.99 in 10.0 mi NW 16.1 mph 28.8 mph N/A   Light Drizzle
1:53 AM 57.2 °F - 51.8 °F 82% 29.99 in 10.0 mi NW 16.1 mph 28.8 mph N/A   Light Drizzle
1:55 AM 56.8 °F - 52.2 °F 84% 29.99 in 10.0 mi NNW 13.8 mph 25.3 mph 0.00 in   Light Drizzle
2:03 AM 57.2 °F - 51.8 °F 82% 29.99 in 10.0 mi NW 10.4 mph 21.9 mph N/A   Overcast
2:12 AM 55.4 °F - 51.8 °F 88% 29.99 in 10.0 mi NW 15.0 mph 21.9 mph N/A   Light Drizzle
2:35 AM 53.6 °F - 50.0 °F 88% 30.00 in 10.0 mi NW 15.0 mph 19.6 mph N/A   Overcast
2:55 AM 54.3 °F - 46.2 °F 74% 30.01 in 10.0 mi WNW 10.4 mph 20.7 mph 0.00 in   Overcast
3:55 AM 53.4 °F - 41.4 °F 64% 30.03 in 10.0 mi NW 10.4 mph - N/A   Mostly Cloudy
4:55 AM 51.8 °F - 40.6 °F 66% 30.03 in 10.0 mi West 8.1 mph - N/A   Clear
5:55 AM 50.5 °F - 37.8 °F 62% 30.06 in 10.0 mi West 16.1 mph 21.9 mph N/A   Clear
6:55 AM 48.7 °F - 36.5 °F 63% 30.09 in 10.0 mi West 12.7 mph 21.9 mph N/A   Clear
7:55 AM 47.7 °F - 34.7 °F 61% 30.11 in 10.0 mi West 15.0 mph 20.7 mph N/A   Clear
9:55 AM 46.9 °F - 32.9 °F 58% 30.14 in 10.0 mi WNW 9.2 mph 19.6 mph N/A   Clear
10:55 AM 49.8 °F - 32.5 °F 51% 30.13 in 10.0 mi WNW 13.8 mph 23.0 mph N/A   Clear
11:55 AM 50.7 °F - 31.1 °F 47% 30.13 in 10.0 mi WNW 13.8 mph 25.3 mph N/A   Partly Cloudy
12:55 PM 48.9 °F - 30.2 °F 48% 30.13 in 10.0 mi West 15.0 mph 23.0 mph N/A   Mostly Cloudy
1:55 PM 49.3 °F - 29.7 °F 47% 30.12 in 10.0 mi West 17.3 mph 26.5 mph N/A   Mostly Cloudy
2:55 PM 47.8 °F - 28.8 °F 48% 30.13 in 10.0 mi West 11.5 mph 20.7 mph N/A   Scattered Clouds
3:55 PM 46.6 °F - 25.9 °F 44% 30.16 in 10.0 mi WNW 10.4 mph 26.5 mph N/A   Clear
4:55 PM 44.1 °F 40.8 °F 25.3 °F 48% 30.20 in 10.0 mi NNW 5.8 mph 17.3 mph N/A   Overcast
5:55 PM 40.6 °F 32.7 °F 21.4 °F 46% 30.25 in 10.0 mi NNW 15.0 mph 26.5 mph N/A   Partly Cloudy
6:55 PM 38.5 °F 31.6 °F 18.0 °F 44% 30.27 in 10.0 mi NNW 10.4 mph 19.6 mph N/A   Partly Cloudy
7:55 PM 38.1 °F 32.9 °F 18.5 °F 45% 30.30 in 10.0 mi Variable 6.9 mph - N/A   Overcast
8:55 PM 37.4 °F 32.1 °F 19.4 °F 48% 30.29 in 10.0 mi Variable 6.9 mph - N/A   Scattered Clouds
9:55 PM 36.0 °F 28.0 °F 19.0 °F 50% 30.29 in 10.0 mi NNW 11.5 mph 21.9 mph N/A   Clear
10:55 PM 34.3 °F 29.2 °F 16.7 °F 49% 30.30 in 10.0 mi North 5.8 mph - N/A   Clear
11:55 PM 34.0 °F 28.0 °F 16.9 °F 50% 30.31 in 10.0 mi Variable 6.9 mph - N/A   Clear